Weather History for NW Arkansas Airport, AR

Change the Weather History Date:

Tuesday, April 23, 2013

  Actual Average Record
Temperature  
Mean Temperature 48 °F -  
Max Temperature 61 °F - - ()
Min Temperature 35 °F - - ()
Degree Days  
Heating Degree Days 18    
Moisture  
Dew Point 45 °F    
Average Humidity 92    
Maximum Humidity 100    
Minimum Humidity 64    
Precipitation  
Precipitation 0.11 in - - ()
Sea Level Pressure  
Sea Level Pressure 29.98 in    
Wind  
Wind Speed 10 mph (North)    
Max Wind Speed 18 mph    
Max Gust Speed 23 mph    
Visibility 7 miles    
Events Rain    
T = Trace of Precipitation, MM = Missing Value Source: NWS Daily Summary

Daily Weather History Graph

Daily Weather History Graph

Search for Another Location

Airport:

Trip Planner

Search our weather history database for the weather conditions in past years. The results will help you decide how hot, cold, wet, or windy it might be!

Date:

Astronomy

Apr. 23, 2013 Rise Set
Actual Time 6:33 AM CDT 7:58 PM CDT
Civil Twilight 6:06 AM CDT 8:25 PM CDT
Nautical Twilight 5:33 AM CDT 8:57 PM CDT
Astronomical Twilight 4:59 AM CDT 9:31 PM CDT
Moon 5:57 PM CDT (4/23) 4:57 AM CDT (4/23)
Length of Visible Light 14h 19m
Length of Day
13h 25m
Waxing Gibbous, 94% of the Moon is Illuminated
Apr 23
Waxing Gibbous
Apr 25
Full
May 2
Last Quarter
May 9
New
May 17
First Quarter

Hourly Weather History & Observations

Time (CDT) Temp. Windchill Dew Point Humidity Pressure Visibility Wind Dir Wind Speed Gust Speed Precip Events Conditions
12:53 AM 57.0 °F - 46.0 °F 67% 29.94 in 10.0 mi ESE 8.1 mph - N/A   Mostly Cloudy
1:53 AM 55.9 °F - 46.9 °F 72% 29.92 in 10.0 mi ESE 5.8 mph - N/A   Clear
2:53 AM 57.0 °F - 46.9 °F 69% 29.86 in 10.0 mi ESE 5.8 mph - N/A   Scattered Clouds
3:53 AM 57.0 °F - 48.0 °F 72% 29.83 in 10.0 mi SE 6.9 mph - N/A   Clear
4:53 AM 60.1 °F - 48.0 °F 64% 29.79 in 10.0 mi SSE 15.0 mph - 0.00 in Rain Light Rain
5:53 AM 57.9 °F - 50.0 °F 75% 29.82 in 10.0 mi South 11.5 mph - 0.00 in   Overcast
6:53 AM 59.0 °F - 50.0 °F 72% 29.86 in 10.0 mi WNW 10.4 mph - 0.01 in   Overcast
7:53 AM 55.0 °F - 52.0 °F 89% 29.90 in 10.0 mi NNW 6.9 mph - N/A   Overcast
8:53 AM 57.0 °F - 53.1 °F 87% 29.90 in 10.0 mi NNE 3.5 mph - N/A   Overcast
9:53 AM 57.9 °F - 54.0 °F 87% 29.90 in 10.0 mi NE 3.5 mph - N/A   Overcast
10:53 AM 59.0 °F - 55.0 °F 87% 29.90 in 10.0 mi North 4.6 mph - N/A   Overcast
11:53 AM 57.0 °F - 54.0 °F 89% 29.92 in 10.0 mi NNW 9.2 mph - N/A   Overcast
12:22 PM 55.4 °F - 53.6 °F 94% 29.93 in 10.0 mi NNW 9.2 mph - N/A   Overcast
12:31 PM 55.4 °F - 53.6 °F 94% 29.93 in 10.0 mi NNW 10.4 mph - N/A   Overcast
12:46 PM 55.4 °F - 53.6 °F 94% 29.93 in 9.0 mi NW 12.7 mph - N/A   Overcast
12:53 PM 52.0 °F - 52.0 °F 100% 29.92 in 5.0 mi NNW 12.7 mph - N/A   Overcast
1:18 PM 48.2 °F - 48.2 °F 100% 29.93 in 2.5 mi NNW 12.7 mph 19.6 mph 0.00 in Rain Light Rain
1:35 PM 46.4 °F 40.7 °F 46.4 °F 100% 29.94 in 4.0 mi NNW 12.7 mph 18.4 mph 0.01 in Rain Light Rain
1:53 PM 46.0 °F 40.2 °F 46.0 °F 100% 29.94 in 5.0 mi NNW 12.7 mph - 0.01 in Rain Light Rain
2:28 PM 42.8 °F 36.6 °F 42.8 °F 100% 29.95 in 2.5 mi NNW 11.5 mph - 0.02 in Rain Light Rain
2:53 PM 42.1 °F 35.7 °F 42.1 °F 100% 29.96 in 2.5 mi NNW 11.5 mph - 0.02 in Rain Light Rain
3:05 PM 42.8 °F 36.6 °F 42.8 °F 100% 29.96 in 3.0 mi NNW 11.5 mph - 0.01 in Rain Light Rain
3:22 PM 41.0 °F 33.5 °F 41.0 °F 100% 29.97 in 2.5 mi NNW 13.8 mph - 0.01 in   Overcast
3:51 PM 39.2 °F 30.8 °F - N/A% 29.98 in 2.5 mi NNW 15.0 mph - 0.02 in Rain Light Rain
3:53 PM 39.9 °F 32.1 °F - N/A% 29.97 in 3.0 mi NNW 13.8 mph - 0.02 in Rain Light Rain
4:40 PM 39.2 °F 32.0 °F 39.2 °F 100% 29.99 in 5.0 mi North 11.5 mph - 0.01 in Rain Light Rain
4:53 PM 39.0 °F 31.4 °F - N/A% 29.99 in 5.0 mi North 12.7 mph - 0.02 in Rain Light Rain
5:07 PM 39.2 °F 31.2 °F 39.2 °F 100% 29.99 in 4.0 mi North 13.8 mph - 0.00 in Rain Light Rain
5:28 PM 37.4 °F 30.3 °F - N/A% 30.00 in 4.0 mi NNW 10.4 mph - 0.01 in Rain Light Rain
5:53 PM 39.0 °F 32.3 °F - N/A% 30.00 in 5.0 mi North 10.4 mph - 0.01 in   Haze
6:51 PM 37.4 °F 30.8 °F - N/A% 30.02 in 2.5 mi North 9.2 mph - 0.01 in Rain Light Rain
6:53 PM 37.9 °F 31.5 °F - N/A% 30.02 in 2.5 mi North 9.2 mph - 0.01 in Rain Light Rain
7:01 PM 37.4 °F 29.3 °F - N/A% 30.03 in 3.0 mi NNW 12.7 mph - 0.00 in Rain Light Rain
7:53 PM 37.9 °F 31.5 °F - N/A% 30.05 in 4.0 mi North 9.2 mph - 0.00 in Rain Light Rain
8:24 PM 37.4 °F 29.8 °F - N/A% 30.06 in 10.0 mi NNW 11.5 mph - 0.01 in   Overcast
8:34 PM 37.4 °F 29.3 °F - N/A% 30.06 in 7.0 mi NNW 12.7 mph - 0.01 in   Overcast
8:43 PM 35.6 °F 25.2 °F - N/A% 30.06 in 9.0 mi North 18.4 mph - 0.01 in   Overcast
8:53 PM 36.0 °F 27.1 °F 36.0 °F 100% 30.08 in 10.0 mi North 13.8 mph - 0.01 in   Overcast
9:07 PM 35.6 °F 25.5 °F 35.6 °F 100% 30.08 in 10.0 mi North 17.3 mph - N/A   Overcast
9:17 PM 35.6 °F 27.5 °F 35.6 °F 100% 30.09 in 10.0 mi North 11.5 mph - N/A   Overcast
9:26 PM 35.6 °F 25.9 °F 35.6 °F 100% 30.09 in 10.0 mi North 16.1 mph - N/A   Overcast
9:40 PM 35.6 °F 27.5 °F 35.6 °F 100% 30.10 in 10.0 mi NNW 11.5 mph - N/A   Overcast
9:53 PM 36.0 °F 28.0 °F - N/A% 30.10 in 8.0 mi North 11.5 mph - N/A   Overcast
10:41 PM 35.6 °F 27.5 °F 35.6 °F 100% 30.11 in 10.0 mi North 11.5 mph - N/A   Overcast
10:53 PM 36.0 °F 27.1 °F 36.0 °F 100% 30.11 in 10.0 mi North 13.8 mph - N/A   Overcast
11:15 PM 35.6 °F 26.6 °F 35.6 °F 100% 30.11 in 10.0 mi North 13.8 mph - N/A   Overcast
11:53 PM 36.0 °F 28.0 °F 36.0 °F 100% 30.12 in 10.0 mi North 11.5 mph 23.0 mph N/A   Overcast